EJU74XZ GVNP-LPPR

Flight info

Callsign EJU74XZ
Flight time N/A
Altitude 37000
Route AMDER1N AMDER DCT BVT UW21 DIMKI DCT IPERA N873 ODEGI/N0457F380 N873 GDV DCT VASTO DCT NIDEB DCT TIGGI DCT BUSEN DCT TERVA DCT ASMOV
Aircraft A20N/M-SDE2E3FGHIRWXY/LB1

Departure

Time 2026-04-14 16:27
Airport Nelson Mandela International Airport (GVNP)

Arrival

Time N/A
Airport Francisco de Sá Carneiro Airport (LPPR)
Time Latitude Longitude Altitude Speed Heading
2026-04-14 16:03 14.94480 -23.48564 312 ft 0 kts 295°
2026-04-14 16:20 14.94476 -23.48556 312 ft 4 kts 290°
2026-04-14 16:20 14.94471 -23.48530 312 ft 4 kts 263°
2026-04-14 16:21 14.94475 -23.48508 312 ft 1 kts 252°
2026-04-14 16:21 14.94477 -23.48504 312 ft 0 kts 252°
2026-04-14 16:22 14.94476 -23.48505 310 ft 1 kts 252°
2026-04-14 16:23 14.94464 -23.48510 312 ft 6 kts 195°
2026-04-14 16:23 14.94380 -23.48512 311 ft 16 kts 153°
2026-04-14 16:23 14.94311 -23.48413 311 ft 18 kts 149°
2026-04-14 16:23 14.94196 -23.48433 310 ft 18 kts 200°
2026-04-14 16:24 14.94071 -23.48482 310 ft 20 kts 202°
2026-04-14 16:24 14.93937 -23.48539 309 ft 22 kts 202°
2026-04-14 16:24 14.93787 -23.48601 308 ft 24 kts 201°
2026-04-14 16:24 14.93625 -23.48668 306 ft 26 kts 201°
2026-04-14 16:25 14.93512 -23.48699 303 ft 12 kts 214°
2026-04-14 16:25 14.93510 -23.48722 302 ft 1 kts 332°
2026-04-14 16:25 14.93532 -23.48719 304 ft 6 kts 19°
2026-04-14 16:25 14.93577 -23.48694 305 ft 8 kts 29°
2026-04-14 16:26 14.93629 -23.48672 305 ft 10 kts 20°
2026-04-14 16:26 14.93911 -23.48554 310 ft 80 kts 21°
2026-04-14 16:26 14.94622 -23.48261 315 ft 137 kts 21°
2026-04-14 16:26 14.95554 -23.47864 813 ft 138 kts 24°
2026-04-14 16:27 14.96403 -23.47433 1483 ft 138 kts 24°
2026-04-14 16:27 14.97308 -23.47055 2072 ft 142 kts 20°
2026-04-14 16:27 14.98282 -23.46688 2507 ft 157 kts 21°
2026-04-14 16:27 14.99363 -23.46277 2906 ft 174 kts 21°
2026-04-14 16:28 15.00533 -23.45816 3291 ft 191 kts 22°
2026-04-14 16:28 15.01839 -23.45287 3636 ft 214 kts 22°
2026-04-14 16:28 15.03296 -23.44686 4018 ft 237 kts 22°
2026-04-14 16:28 15.04891 -23.44025 4524 ft 255 kts 23°
2026-04-14 16:29 15.06560 -23.43330 5307 ft 261 kts 22°
2026-04-14 16:29 15.08264 -23.42620 6069 ft 267 kts 22°
2026-04-14 16:29 15.10010 -23.41900 6776 ft 273 kts 20°
2026-04-14 16:29 15.11856 -23.41372 7476 ft 278 kts 12°
2026-04-14 16:30 15.13773 -23.40996 8168 ft 282 kts 11°
2026-04-14 16:30 15.15715 -23.40631 8862 ft 285 kts 10°
2026-04-14 16:30 15.17681 -23.40267 9502 ft 289 kts 10°
2026-04-14 16:30 15.19677 -23.39896 10146 ft 294 kts
2026-04-14 16:31 15.21755 -23.39507 10382 ft 314 kts
2026-04-14 16:31 15.23970 -23.39091 10575 ft 333 kts
2026-04-14 16:31 15.26274 -23.38658 10911 ft 346 kts
2026-04-14 16:31 15.28654 -23.38209 11553 ft 350 kts
2026-04-14 16:32 15.31059 -23.37754 12210 ft 354 kts
2026-04-14 16:32 15.33495 -23.37293 12818 ft 358 kts
2026-04-14 16:32 15.35963 -23.36828 13401 ft 363 kts
2026-04-14 16:32 15.38391 -23.36046 13960 ft 370 kts 26°
2026-04-14 16:33 15.40479 -23.34468 14524 ft 376 kts 45°
2026-04-14 16:33 15.42030 -23.32266 15069 ft 381 kts 59°
2026-04-14 16:33 15.43538 -23.30002 15634 ft 384 kts 46°
2026-04-14 16:33 15.45630 -23.28269 16139 ft 388 kts 29°
2026-04-14 16:34 15.48016 -23.26931 16651 ft 392 kts 28°
2026-04-14 16:34 15.50403 -23.25527 17201 ft 396 kts 29°
2026-04-14 16:34 15.52799 -23.24086 17698 ft 400 kts 29°
2026-04-14 16:34 15.55226 -23.22635 18183 ft 405 kts 29°
2026-04-14 16:35 15.57692 -23.21177 18670 ft 409 kts 29°
2026-04-14 16:35 15.60184 -23.19718 19153 ft 413 kts 28°
2026-04-14 16:35 15.62710 -23.18248 19629 ft 417 kts 28°
2026-04-14 16:35 15.65252 -23.16771 20066 ft 421 kts 28°
2026-04-14 16:36 15.67822 -23.15280 20482 ft 426 kts 27°
2026-04-14 16:36 15.70422 -23.13772 20931 ft 429 kts 27°
2026-04-14 16:36 15.73039 -23.12254 21363 ft 433 kts 27°
2026-04-14 16:36 15.75679 -23.10722 21773 ft 436 kts 27°
2026-04-14 16:37 15.78345 -23.09174 22158 ft 441 kts 27°
2026-04-14 16:37 15.80998 -23.07634 22523 ft 444 kts 27°
2026-04-14 16:37 15.83740 -23.06042 22915 ft 448 kts 27°
2026-04-14 16:37 15.86437 -23.04477 23291 ft 451 kts 26°
2026-04-14 16:38 15.89224 -23.02860 23660 ft 454 kts 26°
2026-04-14 16:38 15.91969 -23.01267 23999 ft 458 kts 26°
2026-04-14 16:38 15.94725 -22.99666 24360 ft 460 kts 26°
2026-04-14 16:38 15.97532 -22.98036 24697 ft 463 kts 26°
2026-04-14 16:39 16.00361 -22.96393 25029 ft 466 kts 26°
2026-04-14 16:39 16.03198 -22.94747 25337 ft 470 kts 26°
2026-04-14 16:39 16.06062 -22.93085 25671 ft 472 kts 26°
2026-04-14 16:39 16.08939 -22.91414 26003 ft 475 kts 26°
2026-04-14 16:40 16.11836 -22.89736 26309 ft 478 kts 25°
2026-04-14 16:40 16.14836 -22.88257 26606 ft 476 kts 17°
2026-04-14 16:40 16.17943 -22.87087 26906 ft 476 kts 14°
2026-04-14 16:40 16.21092 -22.85958 27188 ft 479 kts 14°
2026-04-14 16:41 16.24251 -22.84834 27466 ft 481 kts 14°
2026-04-14 16:41 16.27428 -22.83700 27748 ft 484 kts 14°
2026-04-14 16:41 16.30625 -22.82554 28029 ft 486 kts 14°
2026-04-14 16:41 16.33829 -22.81400 28289 ft 489 kts 14°
2026-04-14 16:42 16.37050 -22.80236 28553 ft 491 kts 14°
2026-04-14 16:42 16.40283 -22.79066 28815 ft 493 kts 14°
2026-04-14 16:42 16.43536 -22.77888 29066 ft 495 kts 14°
2026-04-14 16:42 16.46797 -22.76707 29304 ft 497 kts 14°
2026-04-14 16:43 16.50070 -22.75521 29543 ft 499 kts 14°
2026-04-14 16:43 16.53367 -22.74326 29791 ft 502 kts 14°
2026-04-14 16:43 16.55555 -22.73532 29948 ft 503 kts 14°
2026-04-14 16:43 16.59950 -22.71938 30286 ft 506 kts 14°
2026-04-14 16:44 16.63277 -22.70731 30580 ft 507 kts 13°
2026-04-14 16:44 16.66612 -22.69518 30872 ft 508 kts 13°
2026-04-14 16:44 16.69952 -22.68303 31165 ft 509 kts 13°
2026-04-14 16:45 16.75546 -22.66266 31795 ft 506 kts 13°
2026-04-14 16:45 16.78857 -22.65059 32173 ft 504 kts 13°
2026-04-14 16:45 16.82173 -22.63851 32497 ft 503 kts 13°
2026-04-14 16:45 16.85424 -22.62666 32846 ft 501 kts 12°
2026-04-14 16:46 16.88708 -22.61469 33186 ft 499 kts 12°
2026-04-14 16:46 16.91985 -22.60275 33510 ft 497 kts 12°
2026-04-14 16:46 16.95232 -22.59090 33850 ft 495 kts 12°
2026-04-14 16:46 16.98502 -22.57898 34135 ft 493 kts 12°
2026-04-14 16:47 17.01742 -22.56717 34369 ft 493 kts 12°
2026-04-14 16:47 17.04984 -22.55536 34564 ft 494 kts 12°
2026-04-14 16:47 17.08227 -22.54355 34771 ft 493 kts 11°
2026-04-14 16:47 17.11471 -22.53172 34986 ft 493 kts 12°
2026-04-14 16:48 17.14706 -22.51992 35188 ft 492 kts 11°
2026-04-14 16:48 17.17940 -22.50812 35391 ft 492 kts 11°
2026-04-14 16:48 17.21168 -22.49633 35634 ft 491 kts 11°
2026-04-14 16:48 17.24354 -22.48470 35752 ft 492 kts 11°
2026-04-14 16:49 17.27586 -22.47289 35912 ft 492 kts 11°
2026-04-14 16:49 17.30824 -22.46105 36090 ft 491 kts 11°
2026-04-14 16:49 17.34052 -22.44924 36248 ft 491 kts 11°
2026-04-14 16:49 17.37282 -22.43743 36385 ft 491 kts 11°
2026-04-14 16:50 17.40513 -22.42561 36497 ft 492 kts 11°
2026-04-14 16:50 17.43747 -22.41377 36703 ft 490 kts 11°
2026-04-14 16:50 17.46958 -22.40199 36936 ft 488 kts 11°
2026-04-14 16:50 17.50152 -22.39027 36988 ft 485 kts 11°
2026-04-14 16:51 17.56485 -22.36702 36990 ft 481 kts 11°
2026-04-14 16:51 17.62833 -22.34379 36990 ft 484 kts 11°
2026-04-14 16:52 17.69177 -22.32052 36989 ft 483 kts 11°
2026-04-14 16:52 17.75519 -22.29721 36990 ft 483 kts 11°
2026-04-14 16:53 17.81861 -22.27387 36990 ft 483 kts 11°
2026-04-14 16:53 17.88191 -22.24969 36982 ft 487 kts 15°
2026-04-14 16:54 17.94239 -22.21603 36978 ft 495 kts 24°
2026-04-14 16:54 18.00177 -22.17907 36979 ft 495 kts 24°
2026-04-14 16:55 18.06120 -22.14225 36983 ft 496 kts 23°
2026-04-14 16:55 18.12072 -22.10552 36985 ft 496 kts 23°
2026-04-14 16:56 18.17993 -22.06902 36987 ft 496 kts 23°
2026-04-14 16:56 18.23966 -22.03218 36991 ft 496 kts 24°
2026-04-14 16:57 18.29923 -21.99538 36995 ft 497 kts 24°
2026-04-14 16:57 18.35888 -21.95851 36990 ft 497 kts 24°
2026-04-14 16:58 18.41856 -21.92160 36990 ft 498 kts 24°
2026-04-14 16:58 18.47830 -21.88460 36985 ft 497 kts 24°
2026-04-14 16:59 18.53781 -21.84774 36980 ft 497 kts 24°
2026-04-14 16:59 18.59754 -21.81072 36981 ft 498 kts 24°
2026-04-14 17:00 18.65717 -21.77371 36980 ft 498 kts 24°
2026-04-14 17:00 18.71685 -21.73665 36980 ft 497 kts 25°
2026-04-14 17:01 18.77639 -21.69963 36974 ft 497 kts 25°
2026-04-14 17:01 18.83631 -21.66235 36973 ft 496 kts 25°
2026-04-14 17:02 18.89568 -21.62539 36968 ft 495 kts 25°
2026-04-14 17:02 18.95542 -21.58817 36970 ft 495 kts 25°
2026-04-14 17:03 19.01470 -21.55119 36964 ft 495 kts 25°
2026-04-14 17:03 19.07402 -21.51416 36963 ft 495 kts 25°
2026-04-14 17:04 19.13331 -21.47711 36969 ft 495 kts 25°
2026-04-14 17:04 19.19296 -21.43982 36970 ft 495 kts 26°
2026-04-14 17:05 19.25227 -21.40269 36978 ft 495 kts 26°
2026-04-14 17:05 19.31157 -21.36555 36978 ft 495 kts 26°
2026-04-14 17:06 19.37094 -21.32832 36984 ft 495 kts 26°
2026-04-14 17:06 19.43031 -21.29105 36983 ft 496 kts 26°
2026-04-14 17:07 19.49017 -21.25345 36975 ft 496 kts 26°
2026-04-14 17:07 19.54955 -21.21612 36978 ft 497 kts 26°
2026-04-14 17:08 19.60904 -21.17870 36986 ft 496 kts 26°
2026-04-14 17:08 19.66852 -21.14123 36979 ft 496 kts 26°
2026-04-14 17:09 19.72792 -21.10379 36976 ft 496 kts 26°
2026-04-14 17:09 19.78725 -21.06636 36975 ft 496 kts 26°
2026-04-14 17:10 19.84628 -21.02906 36974 ft 496 kts 26°
2026-04-14 17:10 19.90556 -20.99159 36973 ft 496 kts 26°
2026-04-14 17:11 19.96483 -20.95411 36972 ft 495 kts 27°
2026-04-14 17:11 20.02446 -20.91638 36973 ft 495 kts 27°
2026-04-14 17:12 20.08365 -20.87892 36976 ft 495 kts 27°
2026-04-14 17:12 20.14284 -20.84141 36968 ft 495 kts 27°
2026-04-14 17:13 20.20201 -20.80386 36972 ft 495 kts 27°
2026-04-14 17:13 20.26110 -20.76631 36970 ft 495 kts 27°
2026-04-14 17:14 20.32018 -20.72874 36970 ft 495 kts 27°
2026-04-14 17:14 20.36929 -20.69750 36969 ft 494 kts 27°
2026-04-14 17:15 20.42837 -20.65977 36965 ft 495 kts 27°
2026-04-14 17:15 20.48746 -20.62201 36964 ft 495 kts 28°
2026-04-14 17:16 20.54643 -20.58428 36965 ft 495 kts 28°
2026-04-14 17:16 20.60545 -20.54648 36966 ft 494 kts 28°
2026-04-14 17:17 20.66451 -20.50864 36966 ft 494 kts 28°
2026-04-14 17:17 20.72355 -20.47077 36967 ft 495 kts 28°
2026-04-14 17:18 20.78258 -20.43288 36966 ft 495 kts 28°
2026-04-14 17:18 20.84163 -20.39495 36966 ft 495 kts 28°
2026-04-14 17:19 20.90073 -20.35694 36968 ft 495 kts 28°
2026-04-14 17:19 20.95981 -20.31892 36974 ft 495 kts 28°
2026-04-14 17:20 21.01886 -20.28089 37004 ft 495 kts 28°
2026-04-14 17:20 21.07802 -20.24275 37004 ft 495 kts 28°
2026-04-14 17:21 21.13704 -20.20466 37004 ft 496 kts 28°
2026-04-14 17:21 21.19614 -20.16649 37003 ft 496 kts 28°
2026-04-14 17:22 21.25528 -20.12824 37004 ft 496 kts 28°
2026-04-14 17:22 21.31451 -20.08991 37005 ft 497 kts 28°
2026-04-14 17:23 21.37371 -20.05156 37007 ft 497 kts 28°
2026-04-14 17:23 21.43298 -20.01312 37009 ft 498 kts 29°
2026-04-14 17:24 21.49228 -19.97464 37010 ft 498 kts 29°
2026-04-14 17:24 21.55203 -19.93585 37008 ft 498 kts 29°
2026-04-14 17:25 21.61138 -19.89725 37010 ft 499 kts 29°
2026-04-14 17:25 21.67073 -19.85858 37012 ft 499 kts 29°
2026-04-14 17:26 21.73020 -19.81981 37014 ft 500 kts 29°
2026-04-14 17:26 21.78963 -19.78103 37018 ft 500 kts 29°
2026-04-14 17:27 21.84915 -19.74216 37007 ft 499 kts 29°
2026-04-14 17:27 21.90835 -19.70347 37009 ft 497 kts 29°
2026-04-14 17:28 21.96808 -19.66439 37008 ft 499 kts 29°
2026-04-14 17:28 22.02707 -19.62575 37008 ft 498 kts 30°
2026-04-14 17:29 22.08625 -19.58696 37008 ft 498 kts 30°
2026-04-14 17:29 22.14552 -19.54803 37012 ft 498 kts 30°
2026-04-14 17:30 22.20476 -19.50911 37014 ft 498 kts 30°
2026-04-14 17:30 22.26394 -19.47022 37013 ft 498 kts 30°
2026-04-14 17:31 22.32310 -19.43129 37012 ft 498 kts 30°
2026-04-14 17:31 22.38225 -19.39234 37011 ft 498 kts 30°
2026-04-14 17:32 22.44140 -19.35333 37023 ft 497 kts 30°
2026-04-14 17:32 22.50007 -19.31459 37023 ft 497 kts 30°
2026-04-14 17:33 22.55906 -19.27559 37022 ft 497 kts 30°
2026-04-14 17:34 22.64757 -19.21702 37020 ft 497 kts 30°
2026-04-14 17:34 22.70659 -19.17792 37019 ft 497 kts 30°
2026-04-14 17:35 22.76554 -19.13882 37016 ft 496 kts 30°
2026-04-14 17:35 22.82442 -19.09974 37016 ft 496 kts 30°
2026-04-14 17:36 22.88333 -19.06058 37014 ft 496 kts 30°
2026-04-14 17:36 22.94174 -19.02172 37019 ft 496 kts 31°
2026-04-14 17:37 23.00021 -18.98279 37020 ft 496 kts 31°
2026-04-14 17:37 23.05935 -18.94336 37020 ft 496 kts 31°
2026-04-14 17:38 23.11821 -18.90406 37018 ft 496 kts 31°
2026-04-14 17:38 23.17702 -18.86476 37017 ft 496 kts 31°
2026-04-14 17:39 23.23579 -18.82547 37017 ft 496 kts 31°
2026-04-14 17:39 23.29453 -18.78614 37024 ft 495 kts 31°
2026-04-14 17:40 23.35321 -18.74683 37024 ft 495 kts 31°
2026-04-14 17:40 23.41193 -18.70746 37024 ft 495 kts 31°
2026-04-14 17:41 23.47068 -18.66799 37019 ft 496 kts 31°
2026-04-14 17:41 23.52939 -18.62853 37020 ft 496 kts 31°
2026-04-14 17:42 23.58827 -18.58891 37023 ft 496 kts 31°
2026-04-14 17:42 23.64701 -18.54931 37026 ft 496 kts 31°
2026-04-14 17:43 23.70581 -18.50963 37026 ft 497 kts 31°
2026-04-14 17:43 23.76459 -18.46995 37040 ft 497 kts 31°
2026-04-14 17:44 23.82334 -18.43023 37071 ft 496 kts 31°
2026-04-14 17:44 23.88211 -18.39047 37070 ft 497 kts 31°
2026-04-14 17:45 23.94096 -18.35061 37073 ft 498 kts 31°
2026-04-14 17:45 23.99985 -18.31068 37076 ft 498 kts 31°
2026-04-14 17:46 24.05840 -18.27095 37079 ft 498 kts 32°
2026-04-14 17:46 24.11720 -18.23099 37082 ft 497 kts 32°
2026-04-14 17:47 24.17603 -18.19097 37081 ft 498 kts 31°
2026-04-14 17:47 24.23491 -18.15089 37082 ft 497 kts 32°
2026-04-14 17:48 24.28369 -18.11763 37083 ft 496 kts 32°
2026-04-14 17:48 24.34235 -18.07760 37084 ft 497 kts 32°
2026-04-14 17:49 24.40072 -18.03774 37097 ft 498 kts 32°
2026-04-14 17:49 24.45998 -17.99721 37082 ft 497 kts 32°
2026-04-14 17:50 24.51867 -17.95701 37082 ft 496 kts 32°
2026-04-14 17:50 24.57715 -17.91690 37082 ft 495 kts 32°
2026-04-14 17:51 24.63561 -17.87676 37081 ft 495 kts 32°
2026-04-14 17:51 24.69404 -17.83659 37099 ft 494 kts 32°
2026-04-14 17:52 24.75228 -17.79653 37102 ft 494 kts 32°
2026-04-14 17:52 24.81050 -17.75645 37100 ft 494 kts 32°
2026-04-14 17:53 24.86873 -17.71631 37104 ft 493 kts 32°
2026-04-14 17:53 24.92697 -17.67614 37105 ft 493 kts 32°
2026-04-14 17:54 24.98510 -17.63600 37109 ft 493 kts 32°
2026-04-14 17:54 25.04281 -17.59606 37108 ft 492 kts 32°
2026-04-14 17:55 25.10082 -17.55583 37117 ft 492 kts 32°
2026-04-14 17:55 25.15873 -17.51563 37119 ft 492 kts 32°
2026-04-14 17:56 25.21666 -17.47539 37110 ft 491 kts 32°
2026-04-14 17:56 25.27443 -17.43520 37116 ft 491 kts 32°
2026-04-14 17:57 25.33218 -17.39497 37112 ft 490 kts 32°
2026-04-14 17:57 25.38986 -17.35477 37118 ft 490 kts 32°
2026-04-14 17:58 25.44752 -17.31453 37121 ft 489 kts 32°
2026-04-14 17:58 25.50462 -17.27461 37120 ft 488 kts 32°
2026-04-14 17:59 25.56206 -17.23442 37113 ft 488 kts 32°
2026-04-14 17:59 25.61944 -17.19423 37111 ft 488 kts 32°
2026-04-14 18:00 25.67681 -17.15401 37110 ft 487 kts 32°
2026-04-14 18:00 25.76294 -17.09351 37117 ft 487 kts 32°
2026-04-14 18:01 25.81978 -17.05353 37120 ft 487 kts 32°
2026-04-14 18:01 25.87739 -17.01297 37115 ft 487 kts 32°
2026-04-14 18:02 25.93467 -16.97257 37122 ft 487 kts 32°
2026-04-14 18:02 25.99189 -16.93218 37124 ft 487 kts 32°
2026-04-14 18:03 26.04891 -16.89189 37124 ft 483 kts 32°
2026-04-14 18:03 26.10554 -16.85183 37110 ft 483 kts 32°
2026-04-14 18:04 26.16228 -16.81164 37117 ft 482 kts 32°
2026-04-14 18:04 26.21880 -16.77159 37118 ft 482 kts 32°
2026-04-14 18:05 26.27546 -16.73148 37119 ft 482 kts 32°
2026-04-14 18:05 26.33199 -16.69142 37115 ft 481 kts 32°
2026-04-14 18:06 26.38852 -16.65130 37113 ft 481 kts 32°
2026-04-14 18:06 26.44493 -16.61121 37110 ft 481 kts 32°
2026-04-14 18:07 26.50128 -16.57111 37118 ft 480 kts 32°
2026-04-14 18:07 26.55769 -16.53094 37109 ft 481 kts 32°
2026-04-14 18:08 26.61405 -16.49077 37112 ft 480 kts 32°
2026-04-14 18:08 26.67038 -16.45056 37117 ft 480 kts 32°
2026-04-14 18:09 26.72668 -16.41034 37116 ft 480 kts 32°
2026-04-14 18:09 26.78300 -16.37007 37124 ft 480 kts 32°
2026-04-14 18:10 26.83925 -16.32980 37124 ft 480 kts 32°
2026-04-14 18:10 26.89512 -16.28974 37128 ft 480 kts 32°
2026-04-14 18:11 26.95131 -16.24935 37129 ft 479 kts 32°
2026-04-14 18:11 27.00743 -16.20893 37126 ft 479 kts 32°
2026-04-14 18:12 27.06351 -16.16850 37129 ft 479 kts 32°
2026-04-14 18:12 27.11940 -16.12815 37128 ft 476 kts 32°
2026-04-14 18:13 27.17507 -16.08792 37129 ft 476 kts 32°
2026-04-14 18:13 27.23075 -16.04762 37119 ft 475 kts 32°
2026-04-14 18:14 27.28629 -16.00738 37118 ft 475 kts 32°
2026-04-14 18:14 27.34170 -15.96718 37136 ft 473 kts 32°
2026-04-14 18:15 27.39677 -15.92715 37120 ft 470 kts 32°
2026-04-14 18:15 27.45155 -15.88731 37106 ft 467 kts 32°
2026-04-14 18:16 27.50585 -15.84779 37129 ft 470 kts 32°
2026-04-14 18:16 27.56130 -15.80741 37136 ft 472 kts 33°
2026-04-14 18:17 27.61637 -15.76735 37138 ft 474 kts 33°
2026-04-14 18:17 27.67168 -15.72697 37137 ft 473 kts 33°
2026-04-14 18:18 27.72696 -15.68654 37127 ft 473 kts 33°
2026-04-14 18:18 27.78227 -15.64602 37136 ft 473 kts 33°
2026-04-14 18:19 27.83739 -15.60560 37139 ft 474 kts 33°
2026-04-14 18:19 27.89235 -15.56527 37141 ft 474 kts 33°
2026-04-14 18:20 27.94757 -15.52466 37138 ft 474 kts 33°
2026-04-14 18:20 28.00276 -15.48402 37136 ft 473 kts 34°
2026-04-14 18:21 28.05798 -15.44332 37140 ft 473 kts 34°
2026-04-14 18:21 28.11249 -15.40301 37129 ft 470 kts 34°
2026-04-14 18:22 28.16711 -15.36238 37136 ft 470 kts 34°
2026-04-14 18:22 28.22178 -15.32170 37129 ft 470 kts 34°
2026-04-14 18:23 28.27649 -15.28099 37128 ft 469 kts 34°
2026-04-14 18:23 28.33097 -15.24037 37135 ft 469 kts 34°
2026-04-14 18:24 28.38513 -15.19993 37138 ft 470 kts 34°
2026-04-14 18:24 28.43968 -15.15915 37146 ft 470 kts 34°
2026-04-14 18:25 28.49418 -15.11838 37127 ft 467 kts 34°
2026-04-14 18:25 28.54850 -15.07768 37127 ft 468 kts 34°
2026-04-14 18:26 28.60241 -15.03724 37118 ft 466 kts 34°
2026-04-14 18:26 28.65658 -14.99655 37120 ft 467 kts 34°
2026-04-14 18:27 28.71086 -14.95573 37121 ft 467 kts 34°
2026-04-14 18:27 28.76502 -14.91495 37123 ft 467 kts 34°
2026-04-14 18:28 28.81912 -14.87416 37123 ft 466 kts 34°
2026-04-14 18:28 28.87297 -14.83352 37120 ft 466 kts 34°
2026-04-14 18:29 28.92699 -14.79270 37112 ft 466 kts 34°
2026-04-14 18:29 28.98099 -14.75185 37115 ft 465 kts 34°
2026-04-14 18:30 29.03428 -14.71147 37120 ft 465 kts 34°
2026-04-14 18:30 29.08815 -14.67060 37114 ft 465 kts 34°
2026-04-14 18:31 29.14173 -14.62991 37118 ft 465 kts 34°
2026-04-14 18:31 29.19553 -14.58898 37119 ft 464 kts 34°
2026-04-14 18:32 29.24929 -14.54803 37111 ft 464 kts 34°
2026-04-14 18:32 29.30302 -14.50706 37110 ft 464 kts 34°
2026-04-14 18:33 29.35644 -14.46628 37115 ft 464 kts 34°
2026-04-14 18:34 29.46367 -14.38425 37106 ft 463 kts 35°
2026-04-14 18:34 29.51719 -14.34321 37105 ft 462 kts 35°
2026-04-14 18:35 29.57066 -14.30219 37114 ft 462 kts 35°
2026-04-14 18:35 29.62409 -14.26115 37117 ft 462 kts 35°
2026-04-14 18:36 29.67706 -14.22039 37115 ft 461 kts 35°
2026-04-14 18:36 29.73043 -14.17927 37117 ft 461 kts 35°
2026-04-14 18:37 29.78374 -14.13816 37120 ft 461 kts 35°
2026-04-14 18:37 29.83699 -14.09702 37120 ft 461 kts 35°
2026-04-14 18:38 29.88984 -14.05614 37118 ft 461 kts 35°
2026-04-14 18:38 29.94304 -14.01495 37117 ft 461 kts 35°
2026-04-14 18:39 29.99620 -13.97371 37115 ft 460 kts 35°
2026-04-14 18:39 30.04930 -13.93248 37113 ft 460 kts 35°
2026-04-14 18:40 30.10241 -13.89118 37112 ft 460 kts 35°
2026-04-14 18:40 30.15509 -13.85013 37111 ft 460 kts 35°
2026-04-14 18:41 30.20817 -13.80874 37109 ft 460 kts 35°
2026-04-14 18:41 30.25226 -13.77432 37116 ft 460 kts 35°
2026-04-14 18:42 30.30526 -13.73286 37121 ft 460 kts 35°
2026-04-14 18:42 30.36687 -13.68463 37121 ft 460 kts 35°
2026-04-14 18:43 30.41983 -13.64312 37121 ft 460 kts 35°
2026-04-14 18:43 30.47283 -13.60154 37120 ft 460 kts 35°
2026-04-14 18:44 30.51720 -13.56766 37121 ft 459 kts 30°
2026-04-14 18:44 30.58239 -13.52624 37110 ft 460 kts 28°
2026-04-14 18:45 30.63863 -13.49116 37095 ft 458 kts 28°
2026-04-14 18:45 30.69466 -13.45617 37100 ft 457 kts 28°
2026-04-14 18:46 30.74124 -13.42700 37116 ft 457 kts 28°
2026-04-14 18:46 30.80631 -13.38612 37110 ft 457 kts 28°
2026-04-14 18:47 30.85317 -13.35666 37106 ft 457 kts 28°
2026-04-14 18:47 30.90876 -13.32166 37111 ft 457 kts 28°
2026-04-14 18:48 30.96461 -13.28646 37118 ft 457 kts 28°
2026-04-14 18:48 31.02052 -13.25116 37115 ft 456 kts 28°